Tracking 30922 objects as of 2-Jul-2025
HD Live streaming from Space Station
objects crossing your sky now

TVSAT 2

Track TVSAT 2 now!
TVSAT 2 is classified as:


NORAD ID: 20168
Int'l Code: 1989-062A
Perigee: 35,881.7 km
Apogee: 35,942.7 km
Inclination: 14.7 °
Period: 1,442.2 minutes
Semi major axis: 42283 km
RCS: 2.0976 m2 (large)
Launch date: August 8, 1989
Source: Germany (GER)
Launch site: FRENCH GUIANA (FRGUI)
Your satellite tracking list
OPS 4966
Track 1 satellite(s)




NASA's NSSDC Master Catalog

Two Line Element Set (TLE):
1 20168U 89062A   25182.14380587  .00000053  00000-0  00000-0 0  9994
2 20168  14.7016 358.4479 0007211 169.4648 187.9426  0.99850766130996
Source of the keplerian elements: AFSPC